Regional Weather Roundup
Issued by NWS Cleveland, OH

Home | Current Version | Previous Version | Text Only | Print | Product List | Glossary Off
Versions: 1 2 3 4 5 6 7 8 9 10 11 12 13 14 15 16 17 18 19 20 21 22 23 24 25 26 27 28 29 30 31 32 33 34 35 36 37 38 39 40 41 42 43 44 45 46 47 48 49 50

000
ASUS41 KCLE 290402
RWRCLE
OHIO REGIONAL WEATHER ROUNDUP
NATIONAL WEATHER SERVICE CLEVELAND, OH
1200 AM EDT FRI AUG 29 2014

NOTE: "FAIR" INDICATES FEW OR NO CLOUDS BELOW 12,000 FEET WITH NO
SIGNIFICANT WEATHER AND/OR OBSTRUCTIONS TO VISIBILITY.

OHZ001>008-015>018-024>027-034-035-043-044-290500-
   NORTHWEST OHIO

CITY           SKY/WX    TMP DP  RH WIND       PRES   REMARKS
DEFIANCE       CLEAR     63  56  78 E6        30.13R
FINDLAY        CLEAR     62  55  77 E5        30.13S
TOLEDO EXPRESS CLEAR     60  55  83 E5        30.13S
TOLEDO EXEC    CLEAR     59  52  77 E5        30.15R
LIMA           CLEAR     63  58  83 E9        30.13S
$$

OHZ009>014-019>023-028>033-038-089-290500-
   NORTHEAST OHIO

CITY           SKY/WX    TMP DP  RH WIND       PRES   REMARKS
CLE-HOPKINS    MOCLDY    57  52  83 S3        30.18R
CLE-LAKEFRONT  CLEAR     63  50  62 SE5       30.15S
CUY CO. ARPT   NOT AVBL
LORAIN-ELYRIA  CLEAR     58  52  80 CALM      30.17R
ASHTABULA      CLEAR     50  49  96 CALM      30.18R
AKRON-CANTON   PTCLDY    57  50  77 NE3       30.17S
WOOSTER        CLEAR     52  48  86 CALM      30.17S
MANSFIELD      CLEAR     58  51  78 CALM      30.16S
YOUNGSTOWN     PTCLDY    52  50  93 CALM      30.17R
$$

OHZ042-051>053-060>062-070>072-077>081-290500-
  SOUTHWEST OHIO

CITY           SKY/WX    TMP DP  RH WIND       PRES   REMARKS
CINC-COVINGTON MOCLDY    73  60  63 E8        30.09S
CINC-LUNKEN    CLEAR     71  62  73 NE6       30.09S
HAMILTON       CLEAR     69  62  78 CALM      30.10S
DAYTON         CLEAR     69  60  73 E8        30.12S
WRIGHT-PAT AFB CLEAR     68  61  77 E6        30.11S
DAYTON GENERAL CLEAR     68  61  78 E8        30.11R
WILMINGTON     CLEAR     65  59  81 E5        30.12R
$$

OHZ036-037-039>041-045>050-054>059-063>069-073>076-082>088-290500-
  CENTRAL AND SOUTHEAST OHIO

CITY           SKY/WX    TMP DP  RH WIND       PRES   REMARKS
COLUMBUS       CLEAR     67  57  70 E6        30.12S
OSU AIRPORT    CLEAR     64  57  78 NE6       30.13S
BOLTON FIELD   CLEAR     65  58  79 CALM      30.13S
RICKENBACK AFB CLEAR     65  56  71 E3        30.11S
NEWARK         CLEAR     61  58  90 CALM      30.14S
MARION         CLEAR     58  54  86 E3        30.15R
LANCASTER      CLEAR     63  57  81 E5        30.13S
ZANESVILLE     CLEAR     61  56  83 NE3       30.14S
NEW PHILLY     PTCLDY    55  54  96 CALM      30.17S
$$



USA.gov is the U.S. government's official web portal to all federal, state and local government web resources and services.